| time (UTC) | temp F | wind direction | speed MPH | gust MPH | rain 1hr in | rain 24hr in | rain mn in | humidity % | barometer mb |
| 20260502235806 | 64 | 253 | 6.0 | 15.0 | 0.00 | 0.00 | 0.00 | 37 | 1009.5 |
| 20260502235305 | 64 | 226 | 5.0 | 10.0 | 0.00 | 0.00 | 0.00 | 38 | 1009.7 |
| 20260502234805 | 64 | 251 | 5.0 | 14.0 | 0.00 | 0.00 | 0.00 | 37 | 1009.8 |
| 20260502234307 | 64 | 243 | 7.0 | 15.0 | 0.00 | 0.00 | 0.00 | 37 | 1009.7 |
| 20260502233803 | 64 | 266 | 7.0 | 15.0 | 0.00 | 0.00 | 0.00 | 36 | 1009.7 |
| 20260502233303 | 64 | 281 | 8.0 | 15.0 | 0.00 | 0.00 | 0.00 | 37 | 1009.8 |
| 20260502232804 | 64 | 302 | 6.0 | 15.0 | 0.00 | 0.00 | 0.00 | 37 | 1009.8 |
| 20260502232259 | 64 | 262 | 5.0 | 12.0 | 0.00 | 0.00 | 0.00 | 38 | 1009.9 |
| 20260502231255 | 65 | 244 | 9.0 | 19.0 | 0.00 | 0.00 | 0.00 | 38 | 1010.0 |
| 20260502230755 | 65 | 273 | 9.0 | 20.0 | 0.00 | 0.00 | 0.00 | 37 | 1010.1 |
| 20260502225756 | 65 | 265 | 6.0 | 11.0 | 0.00 | 0.00 | 0.00 | 37 | 1010.2 |
| 20260502224256 | 65 | 209 | 6.0 | 13.0 | 0.00 | 0.00 | 0.00 | 38 | 1010.2 |
| 20260502223754 | 65 | 271 | 8.0 | 14.0 | 0.00 | 0.00 | 0.00 | 38 | 1010.4 |
| 20260502223256 | 65 | 255 | 7.0 | 14.0 | 0.00 | 0.00 | 0.00 | 37 | 1010.3 |
| 20260502222753 | 65 | 275 | 7.0 | 14.0 | 0.00 | 0.00 | 0.00 | 37 | 1010.4 |
| 20260502222254 | 64 | 267 | 9.0 | 20.0 | 0.00 | 0.00 | 0.00 | 38 | 1010.6 |
| 20260502221753 | 65 | 245 | 10.0 | 20.0 | 0.00 | 0.00 | 0.00 | 38 | 1010.6 |
| 20260502221254 | 65 | 234 | 9.0 | 19.0 | 0.00 | 0.00 | 0.00 | 37 | 1010.4 |
| 20260502220755 | 65 | 234 | 7.0 | 19.0 | 0.00 | 0.00 | 0.00 | 37 | 1010.4 |
| 20260502220254 | 65 | 161 | 5.0 | 14.0 | 0.00 | 0.00 | 0.00 | 37 | 1010.5 |
| 20260502214755 | 65 | 228 | 7.0 | 15.0 | 0.00 | 0.00 | 0.00 | 37 | 1010.6 |
| 20260502214249 | 65 | 162 | 7.0 | 15.0 | 0.00 | 0.00 | 0.00 | 37 | 1010.6 |
| 20260502213749 | 65 | 194 | 5.0 | 11.0 | 0.00 | 0.00 | 0.00 | 37 | 1010.6 |
| 20260502213249 | 65 | 175 | 5.0 | 10.0 | 0.00 | 0.00 | 0.00 | 37 | 1010.7 |
| 20260502212750 | 65 | 198 | 6.0 | 14.0 | 0.00 | 0.00 | 0.00 | 36 | 1010.7 |
| 20260502212249 | 65 | 203 | 7.0 | 14.0 | 0.00 | 0.00 | 0.00 | 36 | 1010.7 |
| 20260502211749 | 65 | 234 | 7.0 | 14.0 | 0.00 | 0.00 | 0.00 | 36 | 1010.8 |
| 20260502211250 | 65 | 215 | 7.0 | 14.0 | 0.00 | 0.00 | 0.00 | 35 | 1010.9 |
| 20260502210750 | 65 | 188 | 6.0 | 13.0 | 0.00 | 0.00 | 0.00 | 36 | 1010.9 |
| 20260502210251 | 65 | 221 | 7.0 | 14.0 | 0.00 | 0.00 | 0.00 | 36 | 1011.1 |
| 20260502205245 | 65 | 232 | 9.0 | 15.0 | 0.00 | 0.00 | 0.00 | 36 | 1011.2 |
| 20260502204745 | 65 | 262 | 8.0 | 20.0 | 0.00 | 0.00 | 0.00 | 35 | 1011.4 |
| 20260502204245 | 65 | 245 | 9.0 | 20.0 | 0.00 | 0.00 | 0.00 | 35 | 1011.3 |
| 20260502203744 | 66 | 268 | 10.0 | 20.0 | 0.00 | 0.00 | 0.00 | 35 | 1011.4 |
| 20260502203245 | 66 | 213 | 10.0 | 20.0 | 0.00 | 0.00 | 0.00 | 35 | 1011.5 |
| 20260502202746 | 66 | 211 | 10.0 | 18.0 | 0.00 | 0.00 | 0.00 | 34 | 1011.6 |
| 20260502202245 | 65 | 223 | 10.0 | 18.0 | 0.00 | 0.00 | 0.00 | 35 | 1011.8 |
| 20260502201747 | 65 | 243 | 7.0 | 17.0 | 0.00 | 0.00 | 0.00 | 35 | 1012.0 |
| 20260502201242 | 65 | 157 | 7.0 | 17.0 | 0.00 | 0.00 | 0.00 | 34 | 1012.0 |
| 20260502200741 | 65 | 232 | 9.0 | 17.0 | 0.00 | 0.00 | 0.00 | 34 | 1012.1 |
| 20260502200241 | 64 | 202 | 10.0 | 16.0 | 0.00 | 0.00 | 0.00 | 35 | 1012.2 |
| 20260502195741 | 64 | 245 | 9.0 | 17.0 | 0.00 | 0.00 | 0.00 | 35 | 1012.3 |
| 20260502194740 | 66 | 219 | 8.0 | 18.0 | 0.00 | 0.00 | 0.00 | 35 | 1012.4 |
| 20260502194238 | 65 | 209 | 8.0 | 17.0 | 0.00 | 0.00 | 0.00 | 34 | 1012.5 |
| 20260502193234 | 64 | 181 | 6.0 | 19.0 | 0.00 | 0.00 | 0.00 | 35 | 1012.9 |
| 20260502192735 | 63 | 198 | 8.0 | 17.0 | 0.00 | 0.00 | 0.00 | 35 | 1013.1 |
| 20260502192233 | 63 | 239 | 10.0 | 19.0 | 0.00 | 0.00 | 0.00 | 35 | 1013.2 |
| 20260502191731 | 64 | 211 | 10.0 | 19.0 | 0.00 | 0.00 | 0.00 | 35 | 1013.2 |
| 20260502191231 | 64 | 215 | 9.0 | 18.0 | 0.00 | 0.00 | 0.00 | 35 | 1013.3 |
| 20260502190730 | 64 | 216 | 8.0 | 15.0 | 0.00 | 0.00 | 0.00 | 35 | 1013.3 |
| 20260502190230 | 64 | 173 | 6.0 | 14.0 | 0.00 | 0.00 | 0.00 | 35 | 1013.4 |
| 20260502185726 | 63 | 134 | 6.0 | 13.0 | 0.00 | 0.00 | 0.00 | 35 | 1013.5 |
| 20260502185219 | 62 | 130 | 8.0 | 14.0 | 0.00 | 0.00 | 0.00 | 36 | 1013.7 |
| 20260502184714 | 61 | 200 | 9.0 | 17.0 | 0.00 | 0.00 | 0.00 | 35 | 1013.8 |
| 20260502184208 | 62 | 205 | 10.0 | 17.0 | 0.00 | 0.00 | 0.00 | 35 | 1013.8 |
| 20260502183703 | 62 | 159 | 9.0 | 21.0 | 0.00 | 0.00 | 0.00 | 35 | 1013.8 |
| 20260502183203 | 62 | 190 | 9.0 | 21.0 | 0.00 | 0.00 | 0.00 | 35 | 1014.0 |
| 20260502182702 | 61 | 188 | 10.0 | 20.0 | 0.00 | 0.00 | 0.00 | 36 | 1014.0 |
| 20260502182203 | 62 | 238 | 10.0 | 20.0 | 0.00 | 0.00 | 0.00 | 35 | 1013.9 |
| 20260502180701 | 61 | 188 | 9.0 | 19.0 | 0.00 | 0.00 | 0.00 | 35 | 1014.3 |
| 20260502180202 | 61 | 198 | 10.0 | 19.0 | 0.00 | 0.00 | 0.00 | 36 | 1014.3 |
| 20260502170201 | 58 | 265 | 8.0 | 15.0 | 0.00 | 0.00 | 0.00 | 36 | 1015.3 |
| 20260502164202 | 57 | 167 | 9.0 | 17.0 | 0.00 | 0.00 | 0.00 | 36 | 1015.6 |
| 20260502163701 | 57 | 189 | 9.0 | 17.0 | 0.00 | 0.00 | 0.00 | 36 | 1015.9 |
| 20260502162703 | 57 | 217 | 7.0 | 15.0 | 0.00 | 0.00 | 0.00 | 37 | 1015.9 |
| 20260502162200 | 57 | 169 | 7.0 | 15.0 | 0.00 | 0.00 | 0.00 | 36 | 1016.1 |
| 20260502161202 | 56 | 199 | 8.0 | 18.0 | 0.00 | 0.00 | 0.00 | 37 | 1016.3 |
| 20260502160701 | 56 | 210 | 6.0 | 13.0 | 0.00 | 0.00 | 0.00 | 38 | 1016.3 |
| 20260502160202 | 56 | 220 | 7.0 | 15.0 | 0.00 | 0.00 | 0.00 | 39 | 1016.4 |
| 20260502152135 | 53 | 256 | 6.0 | 13.0 | 0.00 | 0.00 | 0.00 | 44 | 1016.9 |
| 20260502151130 | 54 | 253 | 6.0 | 12.0 | 0.00 | 0.00 | 0.00 | 42 | 1017.0 |
| 20260502150631 | 54 | 219 | 5.0 | 11.0 | 0.00 | 0.00 | 0.00 | 42 | 1017.1 |
| 20260502150130 | 53 | 207 | 4.0 | 12.0 | 0.00 | 0.00 | 0.00 | 45 | 1017.1 |
| 20260502130629 | 41 | 261 | 2.0 | 7.0 | 0.00 | 0.00 | 0.00 | 64 | 1018.0 |
| 20260502130130 | 41 | 254 | 1.0 | 4.0 | 0.00 | 0.00 | 0.00 | 65 | 1018.0 |
| 20260502123631 | 38 | 265 | 0.0 | 2.0 | 0.00 | 0.00 | 0.00 | 72 | 1018.1 |
| 20260502123129 | 37 | 265 | 1.0 | 3.0 | 0.00 | 0.00 | 0.00 | 72 | 1018.1 |
| 20260502122630 | 36 | 265 | 1.0 | 3.0 | 0.00 | 0.00 | 0.00 | 75 | 1018.1 |
| 20260502122129 | 35 | 304 | 1.0 | 3.0 | 0.00 | 0.00 | 0.00 | 79 | 1018.1 |
| 20260502121629 | 34 | 263 | 0.0 | 3.0 | 0.00 | 0.00 | 0.00 | 83 | 1018.1 |
| 20260502121130 | 34 | 237 | 0.0 | 0.0 | 0.00 | 0.00 | 0.00 | 84 | 1018.1 |
| 20260502120630 | 33 | 237 | 0.0 | 0.0 | 0.00 | 0.00 | 0.00 | 85 | 1018.0 |
| 20260502120129 | 33 | 237 | 0.0 | 0.0 | 0.00 | 0.00 | 0.00 | 85 | 1018.0 |
| 20260502115629 | 33 | 237 | 0.0 | 0.0 | 0.00 | 0.00 | 0.00 | 86 | 1018.0 |
| 20260502115130 | 32 | 237 | 0.0 | 0.0 | 0.00 | 0.00 | 0.00 | 87 | 1018.1 |
| 20260502114629 | 31 | 237 | 0.0 | 0.0 | 0.00 | 0.00 | 0.00 | 87 | 1018.0 |
| 20260502114130 | 31 | 237 | 0.0 | 0.0 | 0.00 | 0.00 | 0.00 | 87 | 1018.0 |
| 20260502113628 | 31 | 237 | 0.0 | 1.0 | 0.00 | 0.00 | 0.00 | 88 | 1018.0 |
| 20260502113129 | 31 | 237 | 0.0 | 4.0 | 0.00 | 0.00 | 0.00 | 88 | 1018.0 |
| 20260502112630 | 31 | 237 | 0.0 | 4.0 | 0.00 | 0.00 | 0.00 | 88 | 1017.9 |
| 20260502111630 | 30 | 250 | 0.0 | 3.0 | 0.00 | 0.00 | 0.00 | 88 | 1018.0 |
| 20260502111131 | 30 | 298 | 0.0 | 2.0 | 0.00 | 0.00 | 0.00 | 89 | 1018.0 |
| 20260502110626 | 30 | 350 | 0.0 | 0.0 | 0.00 | 0.00 | 0.00 | 89 | 1018.1 |
| 20260502110126 | 30 | 350 | 0.0 | 0.0 | 0.00 | 0.00 | 0.00 | 89 | 1018.0 |
| 20260502105122 | 31 | 350 | 0.0 | 0.0 | 0.00 | 0.00 | 0.00 | 89 | 1018.0 |
| 20260502104621 | 31 | 350 | 0.0 | 0.0 | 0.00 | 0.00 | 0.00 | 89 | 1017.9 |
| 20260502103119 | 31 | 350 | 0.0 | 0.0 | 0.00 | 0.00 | 0.00 | 89 | 1017.9 |
| 20260502102616 | 31 | 350 | 0.0 | 0.0 | 0.00 | 0.00 | 0.00 | 89 | 1017.9 |
| 20260502102118 | 31 | 350 | 0.0 | 0.0 | 0.00 | 0.00 | 0.00 | 89 | 1017.9 |
| 20260502101616 | 31 | 350 | 0.0 | 0.0 | 0.00 | 0.00 | 0.00 | 89 | 1017.9 |
| 20260502100614 | 31 | 350 | 0.0 | 0.0 | 0.00 | 0.00 | 0.00 | 89 | 1017.8 |
| 20260502100112 | 32 | 350 | 0.0 | 0.0 | 0.00 | 0.00 | 0.00 | 89 | 1017.9 |
| 20260502091105 | 33 | 350 | 0.0 | 0.0 | 0.00 | 0.00 | 0.00 | 88 | 1017.8 |
| 20260502090604 | 33 | 350 | 0.0 | 0.0 | 0.00 | 0.00 | 0.00 | 88 | 1017.8 |
| 20260502090104 | 33 | 350 | 0.0 | 1.0 | 0.00 | 0.00 | 0.00 | 88 | 1017.8 |
| 20260502070601 | 35 | 355 | 0.0 | 0.0 | 0.00 | 0.00 | 0.00 | 82 | 1018.2 |
| 20260502065602 | 35 | 355 | 0.0 | 2.0 | 0.00 | 0.00 | 0.00 | 81 | 1018.3 |
| 20260502065101 | 35 | 355 | 0.0 | 2.0 | 0.00 | 0.00 | 0.00 | 80 | 1018.4 |
| 20260502064603 | 35 | 355 | 0.0 | 1.0 | 0.00 | 0.00 | 0.00 | 79 | 1018.3 |
| 20260502064104 | 36 | 355 | 0.0 | 0.0 | 0.00 | 0.00 | 0.00 | 79 | 1018.3 |
| 20260502063556 | 36 | 355 | 0.0 | 0.0 | 0.00 | 0.00 | 0.00 | 78 | 1018.4 |
| 20260502063050 | 36 | 355 | 0.0 | 0.0 | 0.00 | 0.00 | 0.00 | 77 | 1018.3 |
| 20260502062544 | 36 | 355 | 0.0 | 0.0 | 0.00 | 0.00 | 0.00 | 77 | 1018.3 |
| 20260502062038 | 36 | 355 | 0.0 | 0.0 | 0.00 | 0.00 | 0.00 | 76 | 1018.3 |
| 20260502061532 | 36 | 355 | 0.0 | 1.0 | 0.00 | 0.00 | 0.00 | 76 | 1018.3 |
| 20260502060531 | 36 | 355 | 0.0 | 2.0 | 0.00 | 0.00 | 0.00 | 76 | 1018.3 |
| 20260502060028 | 36 | 355 | 1.0 | 2.0 | 0.00 | 0.00 | 0.00 | 76 | 1018.3 |
| 20260502055526 | 36 | 355 | 3.0 | 6.0 | 0.00 | 0.00 | 0.00 | 77 | 1018.3 |
| 20260502055026 | 36 | 355 | 2.0 | 6.0 | 0.00 | 0.00 | 0.00 | 78 | 1018.2 |
| 20260502054525 | 36 | 355 | 1.0 | 5.0 | 0.00 | 0.00 | 0.00 | 77 | 1018.3 |
| 20260502054026 | 37 | 337 | 0.0 | 0.0 | 0.00 | 0.00 | 0.00 | 74 | 1018.2 |
| 20260502053525 | 37 | 337 | 0.0 | 0.0 | 0.00 | 0.00 | 0.00 | 72 | 1018.3 |
| 20260502052522 | 37 | 337 | 0.0 | 0.0 | 0.00 | 0.00 | 0.00 | 72 | 1018.3 |
| 20260502052021 | 37 | 337 | 0.0 | 0.0 | 0.00 | 0.00 | 0.00 | 71 | 1018.3 |
| 20260502051519 | 38 | 337 | 0.0 | 0.0 | 0.00 | 0.00 | 0.00 | 70 | 1018.3 |
| 20260502051017 | 38 | 337 | 0.0 | 0.0 | 0.00 | 0.00 | 0.00 | 71 | 1018.3 |
| 20260502050515 | 38 | 337 | 0.0 | 0.0 | 0.00 | 0.00 | 0.00 | 71 | 1018.4 |
| 20260502050013 | 38 | 337 | 0.0 | 0.0 | 0.00 | 0.00 | 0.00 | 70 | 1018.3 |
| 20260502045511 | 38 | 337 | 0.0 | 0.0 | 0.00 | 0.00 | 0.00 | 67 | 1018.3 |
| 20260502045011 | 38 | 337 | 0.0 | 0.0 | 0.00 | 0.00 | 0.00 | 67 | 1018.4 |
| 20260502044509 | 38 | 337 | 0.0 | 0.0 | 0.00 | 0.00 | 0.00 | 67 | 1018.3 |
| 20260502044005 | 39 | 337 | 0.0 | 0.0 | 0.00 | 0.00 | 0.00 | 68 | 1018.3 |
| 20260502043502 | 39 | 337 | 0.0 | 0.0 | 0.00 | 0.00 | 0.00 | 70 | 1018.4 |
| 20260502043003 | 39 | 337 | 0.0 | 0.0 | 0.00 | 0.00 | 0.00 | 70 | 1018.5 |
| 20260502042502 | 39 | 337 | 0.0 | 0.0 | 0.00 | 0.00 | 0.00 | 71 | 1018.4 |
| 20260502042003 | 40 | 337 | 0.0 | 1.0 | 0.00 | 0.00 | 0.00 | 71 | 1018.3 |
| 20260502041504 | 40 | 337 | 1.0 | 2.0 | 0.00 | 0.00 | 0.00 | 71 | 1018.4 |
| 20260502040501 | 41 | 336 | 1.0 | 3.0 | 0.00 | 0.00 | 0.00 | 69 | 1018.4 |
| 20260502040002 | 41 | 334 | 0.0 | 0.0 | 0.00 | 0.00 | 0.00 | 65 | 1018.4 |
| 20260502035501 | 42 | 334 | 0.0 | 0.0 | 0.00 | 0.00 | 0.00 | 61 | 1018.4 |
| 20260502035002 | 42 | 334 | 0.0 | 0.0 | 0.00 | 0.00 | 0.00 | 59 | 1018.4 |
| 20260502034502 | 42 | 334 | 0.0 | 0.0 | 0.00 | 0.00 | 0.00 | 59 | 1018.4 |
| 20260502034001 | 42 | 334 | 0.0 | 0.0 | 0.00 | 0.00 | 0.00 | 55 | 1018.5 |
| 20260502033502 | 43 | 334 | 0.0 | 0.0 | 0.00 | 0.00 | 0.00 | 56 | 1018.4 |
| 20260502033001 | 43 | 334 | 0.0 | 0.0 | 0.00 | 0.00 | 0.00 | 56 | 1018.4 |
| 20260502032501 | 43 | 334 | 0.0 | 0.0 | 0.00 | 0.00 | 0.00 | 55 | 1018.4 |
| 20260502032004 | 43 | 334 | 0.0 | 0.0 | 0.00 | 0.00 | 0.00 | 52 | 1018.4 |
| 20260502031502 | 44 | 334 | 0.0 | 0.0 | 0.00 | 0.00 | 0.00 | 53 | 1018.4 |
| 20260502031002 | 44 | 334 | 0.0 | 0.0 | 0.00 | 0.00 | 0.00 | 51 | 1018.4 |
| 20260502030503 | 44 | 334 | 0.0 | 0.0 | 0.00 | 0.00 | 0.00 | 48 | 1018.5 |
| 20260502025451 | 45 | 334 | 0.0 | 0.0 | 0.00 | 0.00 | 0.00 | 46 | 1018.4 |
| 20260502024944 | 45 | 334 | 0.0 | 0.0 | 0.00 | 0.00 | 0.00 | 49 | 1018.4 |
| 20260502023931 | 46 | 334 | 0.0 | 0.0 | 0.00 | 0.00 | 0.00 | 47 | 1018.3 |
| 20260502023426 | 46 | 334 | 0.0 | 0.0 | 0.00 | 0.00 | 0.00 | 48 | 1018.3 |
| 20260502022923 | 46 | 334 | 0.0 | 0.0 | 0.00 | 0.00 | 0.00 | 48 | 1018.3 |
| 20260502022423 | 47 | 334 | 0.0 | 0.0 | 0.00 | 0.00 | 0.00 | 47 | 1018.3 |
| 20260502021923 | 47 | 334 | 0.0 | 0.0 | 0.00 | 0.00 | 0.00 | 45 | 1018.3 |
| 20260502021420 | 47 | 334 | 0.0 | 0.0 | 0.00 | 0.00 | 0.00 | 45 | 1018.2 |
| 20260502020919 | 48 | 334 | 0.0 | 0.0 | 0.00 | 0.00 | 0.00 | 41 | 1018.2 |
| 20260502020416 | 48 | 334 | 0.0 | 0.0 | 0.00 | 0.00 | 0.00 | 43 | 1018.1 |
| 20260502015415 | 49 | 334 | 0.0 | 0.0 | 0.00 | 0.00 | 0.00 | 44 | 1018.1 |
| 20260502014916 | 49 | 334 | 0.0 | 0.0 | 0.00 | 0.00 | 0.00 | 40 | 1018.1 |
| 20260502014416 | 49 | 334 | 0.0 | 0.0 | 0.00 | 0.00 | 0.00 | 41 | 1018.0 |
| 20260502013916 | 50 | 334 | 0.0 | 0.0 | 0.00 | 0.00 | 0.00 | 40 | 1018.0 |
| 20260502013416 | 50 | 334 | 0.0 | 0.0 | 0.00 | 0.00 | 0.00 | 39 | 1018.0 |
| 20260502012413 | 51 | 334 | 0.0 | 1.0 | 0.00 | 0.00 | 0.00 | 36 | 1017.9 |
| 20260502011913 | 52 | 334 | 0.0 | 1.0 | 0.00 | 0.00 | 0.00 | 37 | 1017.9 |
| 20260502011413 | 52 | 334 | 0.0 | 2.0 | 0.00 | 0.00 | 0.00 | 37 | 1017.8 |
| 20260502010914 | 52 | 334 | 1.0 | 4.0 | 0.00 | 0.00 | 0.00 | 35 | 1017.8 |
| 20260502010408 | 52 | 333 | 1.0 | 4.0 | 0.00 | 0.00 | 0.00 | 33 | 1017.9 |
| 20260502005404 | 52 | 32 | 1.0 | 3.0 | 0.00 | 0.00 | 0.00 | 33 | 1017.9 |
| 20260502004404 | 52 | 38 | 2.0 | 6.0 | 0.00 | 0.00 | 0.00 | 33 | 1017.8 |
| 20260502003402 | 53 | 341 | 2.0 | 6.0 | 0.00 | 0.00 | 0.00 | 32 | 1017.8 |
| 20260502002903 | 52 | 14 | 2.0 | 7.0 | 0.00 | 0.00 | 0.00 | 33 | 1017.9 |
| 20260502002403 | 52 | 32 | 5.0 | 10.0 | 0.00 | 0.00 | 0.00 | 32 | 1017.9 |
| 20260502001903 | 52 | 46 | 5.0 | 10.0 | 0.00 | 0.00 | 0.00 | 33 | 1017.8 |
| 20260502000903 | 52 | 0 | 3.0 | 8.0 | 0.00 | 0.00 | 0.00 | 34 | 1017.8 |
| 20260502000403 | 52 | 355 | 4.0 | 8.0 | 0.00 | 0.00 | 0.00 | 34 | 1017.9 |
| 20260501235904 | 52 | 338 | 4.0 | 8.0 | 0.00 | 0.00 | 0.00 | 34 | 1017.8 |